Regional Weather Roundup
Issued by NWS Pendleton, OR

Home | Current Version | Previous Version | Text Only | Print | Product List | Glossary On
Versions: 1 2 3 4 5 6 7 8 9 10 11 12 13 14 15 16 17 18 19 20 21 22 23 24 25 26 27 28 29 30 31 32 33 34 35 36 37 38 39 40 41 42 43 44 45 46 47 48 49 50
000
ASUS46 KPDT 240004
RWRPDT
PENDLETON REGIONAL WEATHER ROUNDUP
NATIONAL WEATHER SERVICE PENDLETON OREGON
500 PM PDT MON APR 23 2018

NOTE: FAIR INDICATES FEW OR NO CLOUDS BELOW 12,000 FEET WITH NO
SIGNIFICANT WEATHER AND/OR OBSTRUCTIONS TO VISIBILITY.

# INDICATES UNOFFICIAL STATION AND DATA

WAZ520-240110-
EAST SLOPES OF WASHINGTON CASCADES

CITY            SKY/WX      TMP DP  RH  WIND    PRES   REMARKS
#BULLFROG       N/A         63  24  22  E8      N/A
#CLE ELUM HS    N/A         62  24  23  E6      30.24
#EASTON DOT     N/A         62  23  22  N9      N/A
#ELK HTS DOT    N/A         62  62  100 E3      N/A
#GLENWOOD       N/A         62  29  28  N7      30.30
#NELSON 3SW     N/A         58  28  32  CALM    30.53
#NILE           N/A         61  25  25  E3      29.63
#TEANAWAY 4NE   N/A         63  34  34  S2      N/A
#TROUT LAKE 1NE N/A         62  28  27  E6      30.29
#TROUT LAKE 1E  N/A         66  31  27  E1      30.29
$$

WAZ521-240110-
SIMCOE HIGHLANDS

CITY            SKY/WX      TMP DP  RH  WIND    PRES   REMARKS
#BICKLETON HS   N/A         54  24  31  E16     29.94
#SATUS PASS DOT N/A         56  16  20  SE8     N/A
#CENTERVILLE 1SWN/A         60  33  36  SE12    30.28
#GOLDENDALE 1NE N/A         68   9  10  E3      N/A
#GOLDENDALE 4W  N/A         64  15  15  SE7     30.31
#GOODNOE HILLS  N/A         66  27  23  NE12    30.20
#LYLE 6NE       N/A         63  34  34  E3      30.30
#PITT 4SE       N/A         59  33  37  E6      30.32
$$

WAZ026-240110-
KITTITAS VALLEY

CITY            SKY/WX      TMP DP  RH  WIND    PRES   REMARKS
ELLENSBURG AP   SUNNY       67  25  20  E13     30.31
6HR MIN TEMP:   58; 6HR MAX TEMP:   69;

#ELLENSBURG CWU N/A         63  26  24  E12     30.26
#ELLENSBURG 3NE N/A         62  28  27  N5      28.37
#ELLENSBURG 1E  N/A         66  27  23  SW3     30.37
#KITTITAS 3S    N/A         62  32  32  E8      30.32
#MANASTASH RDG  N/A         60  60  100 NE13    N/A
#ROCKY CYN DOT  N/A         63  27  25  E12     N/A
#RYEGRASS DOT   N/A         59  25  27  CALM    N/A
$$

WAZ027-240110-
YAKIMA VALLEY

CITY            SKY/WX      TMP DP  RH  WIND    PRES   REMARKS
SUNNYSIDE AP    SUNNY       64  30  28  NE7     30.32
6HR MIN TEMP:   59; 6HR MAX TEMP:   65;

YAKIMA AIRPORT  SUNNY       69  21  16  E13     30.32
6HR MIN TEMP:   62; 6HR MAX TEMP:   71;

YAKIMA-VAGABOND SUNNY       66  19  16  NE13    30.30
6HR MIN TEMP:   60; 6HR MAX TEMP:   67;

#DONALD 2NE     N/A         72  13  10  SE7     29.16
#GRANDVIEW      N/A         65  24  21  SE1     30.33
#MABTON         N/A         65  28  25  N2      30.31
#MOXEE 2E       N/A         37  N/A N/A SW12    29.79  WCI 29
#NACHES 2SW     N/A         64  28  25  E7      30.34
#OUTLOOK DOT    N/A         65  18  16  N3      30.29
#PARKER DOT     N/A         66  19  16  W13     30.31
#TERRACE HTS    N/A         68  29  23  CALM    30.29
#TOPPENISH      N/A         65  26  23  CALM    30.24
#I82 S UMTANUM RN/A         62  23  22  NE10    N/A
#UNION GAP DOT  N/A         67  18  15  N3      30.35
#W YAKIMA       N/A         64  26  23  E2      30.33
#WHITE SWAN 5E  N/A         66  30  26  CALM    30.32
#WILEY CITY 3W  N/A         66  12  12  CALM    30.29
#ZILLAH DOT     N/A         66  24  20  E10     N/A
$$

WAZ028-240110-
LOWER COLUMBIA BASIN...WASHINGTON

CITY            SKY/WX      TMP DP  RH  WIND    PRES   REMARKS
PASCO           SUNNY       70  22  16  VRB3    30.31
6HR MIN TEMP:   60; 6HR MAX TEMP:   70;

PROSSER AWOS    N/A         64  27  24  E9      30.35
RICHLAND AWOS   SUNNY       69  26  20  NE6     30.31
#BASIN CITY 5SW N/A         70  34  26  NE2     30.29
#BENTON CITY    N/A         64  28  25  N12     30.22
#CONNELL 5N     N/A         66  29  25  NE9     30.32
#CONNELL 5NW    N/A         66  32  28  E3      30.26
#ELTOPIA 6NW    N/A         65  30  27  CALM    29.27
#KAHLOTUS       N/A         63  29  28  SE16    30.31
#KENNEWICK 3S   N/A         67  27  22  NW2     30.32
#PROSSER DOT    N/A         66  26  22  NE1     30.33
#SAGEMOOR 2W    N/A         67  31  26  CALM    30.16
#TOUCHET 2S     N/A         68  32  26  CALM    30.27
#WEST PASCO     N/A         71  31  23  CALM    30.33
$$

WAZ029-240110-
FOOTHILLS OF THE BLUES...WASHINGTON

CITY            SKY/WX      TMP DP  RH  WIND    PRES   REMARKS
WALLA WALLA AP  SUNNY       65  32  29  N12     30.29
6HR MIN TEMP:   53; 6HR MAX TEMP:   66;

#CLYDE 6NW      N/A         64  30  28  NE7     30.30
#DELANEY DOT    N/A         67  26  21  N6      30.32
#LOWDEN 2SE     N/A         68  36  31  VRB5    30.25
#PLEASANT VIEW 1N/A         62  29  28  NE8     30.34
#PRESCOTT       N/A         72  32  23  CALM    30.29
#WHITMAN COLLEGEN/A         66  32  28  N1      30.34
#WAITSBURG 5S   N/A         62  36  38  CALM    30.40
#WAITSBURG 6SSE N/A         64  27  24  N12     30.12
#WAITSBURG 8N   N/A         62  N/A N/A N12     30.06S
#WALLA WALLA 5E N/A         65  31  28  N8      N/A
#WHITMAN MISSIONN/A         68  34  28  CALM    30.30
$$

WAZ030-240110-
BLUE MOUNTAINS...WASHINGTON

CITY            SKY/WX      TMP DP  RH  WIND    PRES   REMARKS
$$

ORZ009-041-WAZ024-240110-
COLUMBIA RIVER GORGE

CITY            SKY/WX      TMP DP  RH  WIND    PRES   REMARKS
HOOD RIVER AP   SUNNY       68  28  22  E6      30.27
THE DALLES AP   SUNNY       72  27  19  E14     30.27
6HR MIN TEMP:   59; 6HR MAX TEMP:   72;

#ARLINGTON AIRPON/A         65  29  26  E10     30.31
#CELILO DOT     N/A         72  33  24  NE6     N/A
#LYLE           N/A         69  31  24  SE12    30.27
#MARYHILL       N/A         67  27  22  N9      N/A
#MURDOCK        N/A         70  36  29  E5      30.23
#RUFUS DOT      N/A         67  N/A N/A SE12G24 N/A

$$

ORZ510-240110-
NORTH CENTRAL OREGON

CITY            SKY/WX      TMP DP  RH  WIND    PRES   REMARKS
#ANTELOPE       N/A         57  30  35  NE13    30.18
#CHENOWITH 1W   N/A         62  34  35  SE17    N/A
#COW CYN RST AREN/A         58  N/A N/A NE12    N/A
#DUFUR          N/A         62  29  28  NE8     30.27
#DUFUR 9E       N/A         57  27  31  E15     30.35
#GRASS VALLEY 1SN/A         59  28  30  E14     30.30
#KENT DOT       N/A         59  21  23  NE10    N/A
#MAUPIN SCHOOL  N/A         64  25  23  NE12    30.32
#SHANIKO 5WSW   N/A         55  25  31  NE16    N/A
#SHANIKO 4NW    N/A         53  22  29  NE14    30.29
#TYGH VALLEY 2NEN/A         64  29  27  N9      30.27
#WAPANITIA AIRPON/A         61  28  28  NE12    30.31
#WASCO DOT      N/A         65  25  22  E12     N/A
#WASCO 5NE      N/A         62  37  39  N3      30.31
$$

ORZ511-240110-
CENTRAL OREGON

CITY            SKY/WX      TMP DP  RH  WIND    PRES   REMARKS
BEND AIRPORT    SUNNY       64  21  19  N8      30.24
MADRAS AIRPORT  SUNNY       63  27  25  N9      30.27
PRINEVILLE AP   SUNNY       64  25  23  N10     30.22F
REDMOND AIRPORT SUNNY       65  26  23  N10     30.22
6HR MIN TEMP:   54; 6HR MAX TEMP:   66;

#ASHWOOD SCHOOL N/A         60  28  29  E7      30.20
#BEND 1SW       N/A         58  24  27  CALM    N/A
#BEND-AWBREY    N/A         67  29  24  N2      30.23
#BEND-KIM LN    N/A         62  26  25  NE6     30.20
#CULVER         N/A         61  28  28  NW7     30.08
#CULVER 8W      N/A         62  17  17  E2      30.23
#LAKE BILLY CHINN/A         62  N/A N/A NE9     30.27
#POWELL BUTTE   N/A         63  25  23  N5      30.16
#PRINEVILLE     N/A         66  28  24  W2      30.31
#PRINEVILLE 3N  N/A         64  31  29  SW12    30.22
#WARM SPRINGS   N/A         65  28  25  CALM    30.10

$$


ORZ509-240110-
EAST SLOPES OF OREGON CASCADES

CITY            SKY/WX      TMP DP  RH  WIND    PRES   REMARKS
SISTERS AWOS    N/A         61  23  23  N10     30.20
#BLUE BOX PASS  N/A         54  N/A N/A NE12    N/A
#CAMP SHERMAN   N/A         62  23  22  N1      30.32
#LA PINE 4NW    N/A         62  25  24  E1      30.24
#LAVA BUTTE DOT N/A         60  20  21  NW2     N/A
#SISTERS ODOT   N/A         61  21  21  SE3     N/A
#SISTERS 3N     N/A         60  26  27  NE6     30.23
#SUNRIVER       N/A         62  21  20  N3      30.24
#TUMALO 3W      N/A         60  25  26  N7      30.11
#WANOGA BUTTE D N/A         49  N/A N/A NE8     N/A

$$

ORZ044-240110-
LOWER COLUMBIA BASIN...OREGON

CITY            SKY/WX      TMP DP  RH  WIND    PRES   REMARKS
HERMISTON       SUNNY       68  22  17  CALM    30.29
6HR MIN TEMP:   57; 6HR MAX TEMP:   69;

#BOARDMAN SCHOOLN/A         67  22  18  NE5     30.28
#BOARDMAN 8SW   N/A         66  25  21  NE9     30.30S
#ECHO 8SW       N/A         66  26  22  CALM    30.31
#I-84 EX 198 DOTN/A         63  29  28  E6      N/A
#IONE SCHOOL    N/A         63  26  24  NE6     30.32
#UMATILLA       N/A         68  27  21  N5      30.23
$$

ORZ507-240110-
NORTHERN FOOTHILLS OF THE BLUES

CITY            SKY/WX      TMP DP  RH  WIND    PRES   REMARKS
PENDLETON AIRPT SUNNY       63  25  23  VRB5    30.29
6HR MIN TEMP:   55; 6HR MAX TEMP:   65;

#ADAMS 3WNW     N/A         61  32  33  E5      30.32
#ATHENA         N/A         61  34  36  NW1     30.35
#CAYUSE         N/A         61  34  36  NW7     30.30
#HELIX SCHOOL   N/A         60  31  33  NE7     30.32
#HELIX 3N       N/A         59  32  36  N10     30.30
#HOLDMAN 5SE    N/A         63  31  30  NE2     30.28
#HOLDMAN 6E     N/A         61  33  35  N7      30.11
#M-F GROVE ELEM N/A         64  27  24  N2      30.25
#M-FREEWATER 5SEN/A         65  36  34  NW7     30.27
#PENDLETON DNTN N/A         67  32  27  N2      N/A
#PDT AQUATIC CTRN/A         63  29  28  NE3     30.28
#PDT SUNRIDGE   N/A         63  31  30  W5      30.30
#PENDLETON 6SE  N/A         64  32  30  N2      30.27
#PENDLETON 7NW  N/A         64  36  35  CALM    N/A
#PILOT ROCK 1S  N/A         61  27  27  N2      30.29
#PILOT ROCK     N/A         62  29  28  CALM    30.30
#TUTUILLA       N/A         60  32  35  N3      30.35
#UMAPINE 2E     N/A         68  35  29  N2      30.26

$$

ORZ508-240110-
SOUTHERN FOOTHILLS OF THE BLUES

CITY            SKY/WX      TMP DP  RH  WIND    PRES   REMARKS
#AJAX           N/A         59  22  24  CALM    30.42
#CONDON 5W      N/A         57  28  33  CALM    30.27
#FOSSIL SCHOOL  N/A         58  27  30  NE13    30.20
#HEPPNER EOC    N/A         59  25  27  NE5     30.26
#HEPPNER 4NE    N/A         55  24  30  NE6     30.34
#LEXINGTON 2SE  N/A         63  27  25  CALM    30.28
#MIKKALO        N/A         62  25  24  NE7     30.39
#OLEX 4N        N/A         62  26  25  E10     30.28
#RUGGS 5NE      N/A         60  23  24  NE9     30.46
#RUGGS 2SW      N/A         56  23  28  E8      30.34

$$

ORZ502-503-240110-
BLUE MOUNTAINS

CITY            SKY/WX      TMP DP  RH  WIND    PRES   REMARKS
MEACHAM         SUNNY       52  27  38  VRB6    30.30
6HR MIN TEMP:   50; 6HR MAX TEMP:   54;

#BATTLE MTN DOT N/A         49  22  34  N3      N/A
#GRANITE        N/A         60  16  18  N2      29.88
#HARDMAN 10S    N/A         52  25  35  N8      30.44
#HEPPNER 15SE   N/A         50  26  39  S1      25.79
#LADD CYN SMT   N/A         58  25  28  NW12    N/A
#LADD CREEK ODOTN/A         63  28  26  NW2     N/A
#N POWDER DOT   N/A         60  27  28  N16     N/A
#PIKES PEAK     N/A         53  27  36  N5      27.99
#SUMMERVILLE 5NWN/A         60  24  25  N7      26.90
#TOLLGATE       N/A         46  32  58  W2      30.30
#TROY SCHOOL    N/A         64  31  29  CALM    30.13
#UKIAH          N/A         53  28  38  N10     30.27
#WESTON 4E      N/A         55  34  45  N1      30.29
$$

ORZ505-240110-
JOHN DAY BASIN

CITY            SKY/WX      TMP DP  RH  WIND    PRES   REMARKS
JOHN DAY        SUNNY       62  26  25  SW9     30.24
#ANTELOPE 9ESE  N/A         65  29  26  E7      N/A
#DAYVILLE SCHOOLN/A         66  20  17  N5      30.18
#MITCHELL 8NW   N/A         58  26  29  N2      30.29
#MONUMENT HS    N/A         67  22  18  N5      30.18
#MT. VERNON 5SE N/A         58  24  27  W3      30.19
#SPRAY SCHOOL   N/A         67  N/A N/A W5      N/A
$$

ORZ506-240110-
OCHOCO AND JOHN DAY HIGHLANDS

CITY            SKY/WX      TMP DP  RH  WIND    PRES   REMARKS
#HORSE RIDGE DO N/A         60  12  15  N6      N/A
#IZEE 6NW       N/A         62  26  25  S5      N/A
#KEYES SMT DOT  N/A         57  22  25  NE3     N/A
#PAULINA ODOT   N/A         62  18  18  N2      N/A
#PINE MTN OBS   N/A         52  17  25  CALM    N/A
#PRAIRIE CITY   N/A         64  28  25  CALM    30.37
#SENECA         N/A         55  N/A N/A N5      N/A
#SENECA 9NW     N/A         58  24  27  W2      30.24
$$

ORZ049-240110-
GRANDE RONDE VALLEY

CITY            SKY/WX      TMP DP  RH  WIND    PRES   REMARKS
LA GRANDE       SUNNY       62  25  24  N16     30.26
#COVE SCHOOL    N/A         65  27  24  SW1     30.23
#COVE 6NW       N/A         61  31  32  NW14    30.27
#ELGIN 3N       N/A         64  20  18  NE5     30.22S
#ELGIN 1E       N/A         63  26  24  CALM    N/A
#IMBLER SCHOOL  N/A         59  27  29  N1      30.20
#ISLAND CITY 4N N/A         72  32  23  E3      30.18
#LADD CYN DOT   N/A         61  31  32  NW12    N/A
#UNION 1S       N/A         63  30  29  W2      30.25
$$

ORZ050-240110-
WALLOWA COUNTY

CITY            SKY/WX      TMP DP  RH  WIND    PRES   REMARKS
#ENTERPRISE HS  N/A         57  27  31  N1      30.18
#IMNAHA SCHOOL  N/A         64  32  30  NW7     30.24
#IMNAHA 10S     N/A         61  34  36  NE3     30.22
#JOSEPH         N/A         54  20  26  N5      30.43
#JOSEPH 3N      N/A         55  21  26  NW3     30.29
#JOSEPH 3W      N/A         54  28  36  CALM    30.11
#LOSTINE        N/A         57  27  31  E7      30.11
#LOSTINE 3SE    N/A         57  25  29  E3      30.36
#MT HOWARD 8000 N/A         35  19  52  N5      30.31
#PROMISE 1S     N/A         54  30  40  N9      30.40
#WALLOWA LAKE   N/A         60  26  27  W1      30.31
#WALLOWA SCHOOL N/A         60  25  26  N3      30.21



$$



USA.gov is the U.S. government's official web portal to all federal, state and local government web resources and services.